Content
SEND FEEDBACK

Daily
Averages
Monthly
Summary
Chile

EASTER ISLAND, CHILE


Home > South America > Chile
Elevation: 154 feet     Latitude: 27 09S     Longitude: 109 25W

WEATHER
 
SELECT A DAY
Number of Records: 93,162;   Date Range: 12/26/96 - 7/20/14
 
SHARE

PRINT THIS DATA

[ ← Previous Day ]
WEATHER ALMANAC - JANUARY 31, 2013
[ Next Day → ]
[ °C ]   °F
Weather ElementAverageHighLow
Temperature74 °F78.8 °F (6:00 pm)71.6 °F (1:00 am)
Dewpoint66.2 °F69.8 °F (4:00 pm)62.6 °F (11:00 pm)
Humidity75.3 %88 % (2:00 pm)55 % (7:00 pm)
Barometer30.16 in30.19 in (10:00 pm)30.12 in (4:00 am)
Wind Speed6.8 mph15 mph (12:00 pm)
Weather ElementAverage
Visibility6.3 mi
Wind DirectionE (88.3 °)

Weather ElementTotal
Precipitation---
Cooling Degree Days10.2 (Base 65)
Growing Degree Days25.2 (Base 50)
Averaged from 29 records on January 31, 2013
WEATHER CONDITIONS BREAKOUT
WIND DIRECTION BREAKOUT
WEATHER BY HOUR - JANUARY 31, 2013
[ °C ]   °F
Local TimeTemperatureDewpointHumidityBarometerVisibilityWind DirectionWind SpeedGust SpeedPrecipitationEventsConditions
1:00 AM72.0 °F67.0 °F79 %30.17 in6.0 miEast (80°)9.2 mphPartly Cloudy
1:00 AM71.6 °F66.2 °F83 %30.15 in6.2 miEast (80°)9.2 mphMostly Cloudy
2:00 AM73.4 °F66.2 °F78 %30.15 in6.2 miNE (50°)2.3 mphMostly Cloudy
3:00 AM71.6 °F66.2 °F83 %30.15 in6.2 miEast (80°)5.8 mphMostly Cloudy
4:00 AM72.0 °F67.0 °F79 %30.14 in6.0 miEast (80°)5.8 mphRainLight Rain Showers
4:00 AM71.6 °F66.2 °F83 %30.12 in6.2 miEast (80°)5.8 mphMostly Cloudy
5:00 AM71.6 °F66.2 °F83 %30.12 in6.2 miNE (50°)6.9 mphMostly Cloudy
6:00 AM71.6 °F66.2 °F83 %30.12 in6.2 miCalmMostly Cloudy
7:00 AM73.4 °F66.2 °F78 %30.12 in6.2 miENE (60°)3.5 mphMostly Cloudy
8:00 AM71.6 °F66.2 °F83 %30.12 in6.2 miEast (100°)3.5 mphScattered Clouds
9:00 AM73.4 °F66.2 °F78 %30.15 in6.2 miEast (100°)2.3 mphMostly Cloudy
10:00 AM76.0 °F68.0 °F70 %30.17 in6.0 miNNE (20°)4.6 mphMostly Cloudy
10:00 AM77.0 °F68.0 °F74 %30.15 in6.2 miNNE (20°)4.6 mphMostly Cloudy
11:00 AM77.0 °F66.2 °F69 %30.18 in6.2 miENE (60°)10.4 mphMostly Cloudy
12:00 PM75.2 °F68.0 °F78 %30.18 in6.2 miENE (70°)15.0 mphMostly Cloudy
1:00 PM76.0 °F68.0 °F69 %30.18 in7.0 miENE (60°)10.4 mphRainLight Rain Showers
2:00 PM71.6 °F68.0 °F88 %30.18 in4.3 miNE (50°)8.1 mphRainRain Showers
3:00 PM73.4 °F68.0 °F83 %30.18 in6.2 miNorth (350°)5.8 mphMostly Cloudy
4:00 PM74.0 °F69.0 °F79 %30.17 in7.0 miNNW (340°)8.1 mphPartly Cloudy
4:00 PM75.2 °F69.8 °F83 %30.15 in6.2 miNNW (340°)8.1 mphMostly Cloudy
5:00 PM77.0 °F64.4 °F65 %30.15 in6.2 miNNE (30°)6.9 mphScattered Clouds
6:00 PM78.8 °F64.4 °F61 %30.15 in6.2 miNNE (30°)9.2 mphScattered Clouds
7:00 PM77.0 °F64.4 °F65 %30.15 in6.2 miNE (50°)9.2 mphScattered Clouds
7:00 PM78.0 °F65.0 °F55 %30.16 in9.0 miNE (50°)9.2 mphPartly Cloudy
8:00 PM77.0 °F64.4 °F65 %30.15 in6.2 miNNE (30°)8.1 mphScattered Clouds
9:00 PM75.2 °F64.4 °F69 %30.15 in6.2 miENE (60°)6.9 mphScattered Clouds
10:00 PM72.0 °F64.0 °F71 %30.19 in6.0 miEast (80°)5.8 mphPartly Cloudy
10:00 PM71.6 °F64.4 °F78 %30.18 in6.2 miEast (80°)5.8 mphScattered Clouds
11:00 PM71.6 °F62.6 °F73 %30.18 in6.2 miEast (80°)6.9 mphPartly Cloudy
Hourly data recorded from SCIP, located miles away from Easter Island, Chile







STORIES FROM OUR PARTNERS